Find Starlink 32398

NORAD ID: 61624 Int'l Des: 2024-191 Owner: SPXS Country: US Constellation: starlink operational
LEOCIRCULAR

Current View

Loading 3D Globe...

About Starlink 32398

Starlink 32398 (NORAD 61624) is a starlink constellation satellite (v2 mini) launched Oct 23, 2024 by SPXS of US. It operates in LEO, CIRCULAR orbit with a mass of 730.00 kg.

About Starlink 32398

Description loading...

Upcoming Passes

Passes for default location (London). Set your location on the main map for personalized predictions.

Altitude History

Loading altitude history...

Two-Line Element Set

1 61624U 24191D 26169.76115838 .00000502 00000-0 27783-4 0 9997
2 61624 43.0022 303.7370 0001145 277.5217 82.5504 15.27578404 92993
Epoch: Jun 18, 2026 • Age: 8 hours

Current Status

Altitude 491.6 km
Velocity 7.62 km/s
Sub-Earth Point -33.02°S, 37.51°W
Launch Date Oct 23, 2024
Age 1.6 years
Type internet

Technical Details

Classification Payload
Mass 730.00 kg
Dry Mass 700.00 kg
Total Mass 730.00 kg
Length 0.30 m
Diameter 4.10 m
Span 29.00 m
Shape Box + pan
Manufacturer SPXS
Bus Type Starlink V2M
Phase Status In Orbit
Owner/State SPXS/US

Most Searched